FW0027 Weather Reports


time (UTC)temp
F
wind
direction
speed
knots
gust
knots
rain 1hr
in
rain 24hr
in
rain mn
in
humidity
%
barometer
mb
20260505220857 83 117 3.5 6.1 0.00 0.00 0.00 79 1011.8
20260505214658 83 117 1.7 6.1 0.00 0.00 0.00 80 1011.7
20260505214512 82 117 1.7 6.1 0.00 0.00 0.00 80 1011.7
20260505213636 83 117 2.6 6.1 0.00 0.00 0.00 80 1011.6
20260505213106 82 117 1.7 7.0 0.00 0.00 0.00 80 1011.5
20260505212622 83 117 2.6 7.0 0.00 0.00 0.00 80 1011.4
20260505211626 82 117 4.3 7.8 0.00 0.00 0.00 81 1011.4
20260505211556 83 117 3.5 7.0 0.00 0.00 0.00 81 1011.4
20260505210617 83 117 3.5 7.0 0.00 0.00 0.00 81 1011.3
20260505210006 82 117 2.6 7.8 0.00 0.00 0.00 81 1011.2
20260505205641 83 117 3.5 6.1 0.00 0.00 0.00 81 1011.1
20260505204602 82 117 4.3 9.6 0.00 0.00 0.00 81 1011.2
20260505203524 83 116 4.3 8.7 0.00 0.00 0.00 82 1011.1
20260505203102 82 117 4.3 8.7 0.00 0.00 0.00 83 1011.0
20260505202454 83 116 5.2 8.7 0.00 0.00 0.00 82 1010.9
20260505201607 82 115 5.2 8.7 0.00 0.00 0.00 83 1011.0
20260505201422 83 115 4.3 7.8 0.00 0.00 0.00 83 1010.9
20260505200412 83 116 3.5 8.7 0.00 0.00 0.00 83 1011.0
20260505195420 82 112 4.3 8.7 0.00 0.00 0.00 84 1010.9
20260505194606 82 117 3.5 8.7 0.00 0.00 0.00 85 1010.8
20260505193318 82 121 3.5 7.0 0.00 0.00 0.00 86 1010.6
20260505193010 81 121 3.5 7.0 0.00 0.00 0.00 86 1010.6
20260505192249 82 121 3.5 7.0 0.00 0.00 0.00 86 1010.4
20260505191503 81 121 3.5 7.0 0.00 0.00 0.00 86 1010.5
20260505191305 82 121 4.3 9.6 0.00 0.00 0.00 86 1010.3
20260505190300 82 122 5.2 9.6 0.00 0.00 0.00 85 1010.2
20260505190002 81 119 7.0 10.4 0.00 0.00 0.00 85 1010.4
20260505185308 82 120 4.3 8.7 0.00 0.00 0.00 85 1010.3
20260505184610 81 115 4.3 9.6 0.00 0.00 0.00 84 1010.5
20260505184251 82 118 4.3 8.7 0.00 0.00 0.00 84 1010.5
20260505183237 82 117 4.3 8.7 0.00 0.00 0.00 84 1010.5
20260505183004 81 117 3.5 8.7 0.00 0.00 0.00 84 1010.6
20260505182207 82 132 4.3 9.6 0.00 0.00 0.00 85 1010.6
20260505181503 81 155 5.2 10.4 0.00 0.00 0.00 85 1010.7
20260505180040 82 133 6.1 10.4 0.00 0.00 0.00 85 1010.9
20260505175045 82 157 4.3 10.4 0.00 0.00 0.00 85 1010.9
20260505174049 83 109 5.2 11.3 0.00 0.00 0.00 85 1011.1
20260505173103 82 111 8.7 12.2 0.00 0.00 0.00 84 1011.4
20260505173055 83 121 7.0 11.3 0.00 0.00 0.00 84 1011.3
20260505172106 83 113 7.8 13.0 0.00 0.00 0.00 83 1011.5
20260505171602 82 107 7.8 13.9 0.00 0.00 0.00 83 1011.4
20260505171042 83 131 6.1 12.2 0.00 0.00 0.00 84 1011.4
20260505170005 82 131 5.2 11.3 0.00 0.00 0.00 85 1011.7
20260505164930 83 106 5.2 14.8 0.00 0.00 0.00 85 1011.5
20260505164602 83 130 4.3 12.2 0.00 0.00 0.00 85 1011.5
20260505163916 84 124 7.0 14.8 0.00 0.00 0.00 84 1011.6
20260505163003 83 114 7.0 15.6 0.00 0.00 0.00 82 1011.6
20260505161750 84 141 6.1 12.2 0.00 0.00 0.00 82 1011.7
20260505161503 84 152 6.1 12.2 0.00 0.00 0.00 82 1011.7
20260505160720 85 164 6.1 14.8 0.00 0.00 0.00 79 1011.7
20260505160104 84 101 6.1 13.0 0.00 0.00 0.00 75 1011.9
20260505152730 85 126 6.1 13.0 0.00 0.00 0.00 75 1012.1
20260505151503 84 122 7.8 13.9 0.00 0.00 0.00 75 1012.1
20260505150607 85 125 5.2 12.2 0.00 0.00 0.00 75 1012.1
20260505150117 85 113 7.8 13.0 0.00 0.00 0.00 75 1012.2
20260505140458 85 111 6.1 13.0 0.00 0.00 0.00 74 1012.3
20260505124608 85 121 7.0 12.2 0.00 0.00 0.00 70 1011.7
20260505124447 86 111 6.1 14.8 0.00 0.00 0.00 70 1011.7
20260505123457 86 144 6.1 14.8 0.00 0.00 0.00 69 1011.7
20260505123003 86 101 8.7 15.6 0.00 0.00 0.00 68 1011.9
20260505121504 86 112 8.7 13.0 0.00 0.00 0.00 68 1011.8
20260505121344 86 121 6.1 11.3 0.00 0.00 0.00 68 1011.6
20260505120353 86 133 5.2 9.6 0.00 0.00 0.00 70 1011.6
20260505115327 86 108 5.2 9.6 0.00 0.00 0.00 73 1011.5
20260505114503 86 111 4.3 9.6 0.00 0.00 0.00 73 1011.2
20260505114332 87 111 5.2 9.6 0.00 0.00 0.00 73 1011.1
20260505113316 87 124 5.2 9.6 0.00 0.00 0.00 73 1011.0
20260505113006 86 120 4.3 10.4 0.00 0.00 0.00 72 1010.9
20260505112330 87 103 4.3 7.8 0.00 0.00 0.00 72 1010.9
20260505111604 87 100 5.2 9.6 0.00 0.00 0.00 72 1010.9
20260505111332 87 101 4.3 9.6 0.00 0.00 0.00 72 1010.9
20260505102004 88 113 6.1 13.0 0.00 0.00 0.00 69 1010.6
20260505101503 88 102 7.0 13.9 0.00 0.00 0.00 69 1010.5
20260505100110 88 96 7.0 13.9 0.00 0.00 0.00 68 1010.4
20260505095827 89 101 7.8 14.8 0.00 0.00 0.00 67 1010.3
20260505094846 89 117 7.0 14.8 0.00 0.00 0.00 67 1010.2
20260505094503 89 97 7.0 15.6 0.00 0.00 0.00 67 1010.1
20260505093821 90 106 6.1 13.0 0.00 0.00 0.00 66 1010.0
20260505093102 89 88 6.1 12.2 0.00 0.00 0.00 66 1010.0
20260505092833 90 101 7.8 13.0 0.00 0.00 0.00 65 1009.9
20260505091850 90 116 6.1 13.0 0.00 0.00 0.00 65 1009.8
20260505091603 90 107 7.8 11.3 0.00 0.00 0.00 65 1009.9
20260505090839 90 124 7.8 13.0 0.00 0.00 0.00 64 1009.7
20260505090008 90 109 7.0 13.9 0.00 0.00 0.00 63 1009.8
20260505085857 90 125 6.1 11.3 0.00 0.00 0.00 63 1009.8
20260505084828 91 121 6.1 10.4 0.00 0.00 0.00 64 1009.7
20260505084602 90 120 6.1 11.3 0.00 0.00 0.00 64 1009.7
20260505083004 90 107 9.6 13.9 0.00 0.00 0.00 62 1009.7
20260505081558 91 107 7.0 15.6 0.00 0.00 0.00 61 1009.6
20260505081504 91 100 9.6 15.6 0.00 0.00 0.00 60 1009.7
20260505080540 92 94 7.8 15.6 0.00 0.00 0.00 59 1009.6
20260505074503 93 90 7.8 13.0 0.00 0.00 0.00 57 1009.4
20260505074358 94 109 7.0 12.2 0.00 0.00 0.00 56 1009.4
20260505073332 94 119 7.8 14.8 0.00 0.00 0.00 56 1009.4
20260505073003 94 110 8.7 16.5 0.00 0.00 0.00 56 1009.4
20260505072330 95 61 7.0 16.5 0.00 0.00 0.00 56 1009.3
20260505071502 94 55 4.3 17.4 0.00 0.00 0.00 55 1009.5
20260505071330 95 111 6.1 16.5 0.00 0.00 0.00 55 1009.4
20260505070347 95 65 5.2 16.5 0.00 0.00 0.00 54 1009.6
20260505065321 94 113 7.0 16.5 0.00 0.00 0.00 55 1009.6
20260505064502 94 60 5.2 17.4 0.00 0.00 0.00 55 1009.8
20260505064325 94 102 7.0 13.0 0.00 0.00 0.00 55 1009.7
20260505062251 94 58 7.0 16.5 0.00 0.00 0.00 58 1009.8
20260505061605 93 86 7.0 13.0 0.00 0.00 0.00 58 1009.9
20260505060117 93 103 6.1 18.2 0.00 0.00 0.00 59 1010.0
20260505060003 92 86 5.2 13.0 0.00 0.00 0.00 59 1010.1
20260505055121 92 105 7.8 18.2 0.00 0.00 0.00 60 1010.3
20260505054604 93 116 8.7 19.1 0.00 0.00 0.00 58 1010.5
20260505054055 94 88 7.0 15.6 0.00 0.00 0.00 57 1010.4
20260505053107 94 121 8.7 16.5 0.00 0.00 0.00 57 1010.5
20260505051602 93 148 9.6 16.5 0.00 0.00 0.00 59 1010.7
20260505050931 94 103 7.8 17.4 0.00 0.00 0.00 58 1010.6
20260505041655 94 106 8.7 16.5 0.00 0.00 0.00 56 1011.2
20260505041502 93 102 7.0 17.4 0.00 0.00 0.00 57 1011.2
20260505040625 94 142 8.7 17.4 0.00 0.00 0.00 57 1011.3
20260505040108 93 108 8.7 18.2 0.00 0.00 0.00 57 1011.4
20260505035558 94 117 8.7 16.5 0.00 0.00 0.00 55 1011.4
20260505034602 93 123 7.0 13.0 0.00 0.00 0.00 57 1011.4
20260505034507 93 162 7.8 12.2 0.00 0.00 0.00 57 1011.5
20260505033607 93 99 7.8 15.6 0.00 0.00 0.00 57 1011.6
20260505033103 93 111 7.0 16.5 0.00 0.00 0.00 58 1011.7
20260505032545 93 131 7.8 16.5 0.00 0.00 0.00 59 1011.7
20260505031603 92 105 9.6 17.4 0.00 0.00 0.00 59 1011.9
20260505031529 92 119 8.7 16.5 0.00 0.00 0.00 59 1011.8
20260505030457 92 129 7.8 15.6 0.00 0.00 0.00 59 1011.9
20260505030003 92 107 7.8 16.5 0.00 0.00 0.00 59 1012.0
20260505025501 92 122 7.0 14.8 0.00 0.00 0.00 59 1012.0
20260505024603 92 120 7.0 13.9 0.00 0.00 0.00 60 1012.1
20260505024437 92 78 6.1 16.5 0.00 0.00 0.00 62 1011.9
20260505023003 91 150 7.8 15.6 0.00 0.00 0.00 61 1012.1
20260505022234 91 151 7.0 13.0 0.00 0.00 0.00 62 1012.1
20260505021506 91 128 7.8 13.9 0.00 0.00 0.00 61 1012.3
20260505021236 92 109 7.0 13.0 0.00 0.00 0.00 60 1012.4
20260505020240 92 116 6.1 15.6 0.00 0.00 0.00 59 1012.4
20260505015259 91 86 7.0 15.6 0.00 0.00 0.00 59 1012.5
20260505014502 90 111 7.8 16.5 0.00 0.00 0.00 61 1012.6
20260505014304 91 92 6.1 14.8 0.00 0.00 0.00 62 1012.6
20260505013105 90 109 7.0 12.2 0.00 0.00 0.00 65 1012.7
20260505012204 90 105 4.3 8.7 0.00 0.00 0.00 65 1012.7
20260505011608 89 105 5.2 9.6 0.00 0.00 0.00 65 1012.7
20260505011200 90 101 4.3 8.7 0.00 0.00 0.00 65 1012.6
20260505010203 90 92 3.5 7.0 0.00 0.00 0.00 64 1012.5
20260505010003 89 92 4.3 7.8 0.00 0.00 0.00 64 1012.6
20260505004602 89 91 3.5 7.8 0.00 0.00 0.00 62 1012.7
20260505004104 89 92 3.5 9.6 0.00 0.00 0.00 63 1012.6
20260505003125 89 91 4.3 9.6 0.00 0.00 0.00 62 1012.7
20260505003003 88 101 4.3 8.7 0.00 0.00 0.00 62 1012.7
20260505002135 88 107 3.5 7.8 0.00 0.00 0.00 62 1012.7
20260505001501 88 103 4.3 8.7 0.00 0.00 0.00 63 1012.7
20260505001136 88 109 3.5 7.8 0.00 0.00 0.00 63 1012.7
20260505000201 88 108 3.5 7.8 0.00 0.00 0.00 64 1012.7
20260505000139 87 108 3.5 8.7 0.00 0.00 0.00 63 1012.7
20260504235215 88 97 3.5 6.1 0.00 0.00 0.00 64 1012.6
20260504234504 88 94 5.2 7.0 0.00 0.00 0.00 63 1012.8
20260504234213 88 92 2.6 6.1 0.00 0.00 0.00 64 1012.8
20260504233224 87 103 0.9 5.2 0.00 0.00 0.00 66 1012.7
20260504233109 87 102 0.9 6.1 0.00 0.00 0.00 65 1012.8
20260504232209 87 103 1.7 5.2 0.00 0.00 0.00 68 1012.7
20260504231603 86 103 2.6 6.1 0.00 0.00 0.00 68 1012.7
20260504231153 86 103 1.7 5.2 0.00 0.00 0.00 68 1012.6
20260504230131 85 103 1.7 5.2 0.00 0.00 0.00 70 1012.4
20260504230011 85 103 3.5 6.1 0.00 0.00 0.00 70 1012.5
20260504225150 85 103 2.6 5.2 0.00 0.00 0.00 72 1012.4
20260504224611 84 103 3.5 6.1 0.00 0.00 0.00 73 1012.4
20260504224152 84 103 2.6 5.2 0.00 0.00 0.00 74 1012.3
20260504223005 82 103 3.5 6.1 0.00 0.00 0.00 77 1012.2
20260504222052 82 103 1.7 4.3 0.00 0.00 0.00 79 1012.2